2022-01-20 00:03:10 r, 17.50m,0000000008Hz,0000054815c,0000000.119s,-014.2C,00002191
2022-01-20 00:13:11 r, 17.28m,0000000010Hz,0000044666c,0000000.097s,-014.2C,00002191
2022-01-20 00:23:10 r, 17.11m,0000000012Hz,0000038237c,0000000.083s,-014.2C,00002191
2022-01-20 00:33:13 r, 17.01m,0000000013Hz,0000035194c,0000000.076s,-014.2C,00002191
2022-01-20 00:43:11 r, 16.99m,0000000013Hz,0000034360c,0000000.075s,-014.2C,00002191
2022-01-20 00:53:10 r, 17.77m,0000000007Hz,0000070654c,0000000.153s,-014.6C,00002191
2022-01-20 01:03:11 r, 16.89m,0000000015Hz,0000031265c,0000000.068s,-014.6C,00002191
2022-01-20 01:13:13 r, 16.73m,0000000017Hz,0000027006c,0000000.059s,-014.9C,00002191
2022-01-20 01:23:10 r, 16.63m,0000000018Hz,0000024484c,0000000.053s,-014.9C,00002191
2022-01-20 01:33:10 r, 16.49m,0000000021Hz,0000021524c,0000000.047s,-014.9C,00002191
2022-01-20 01:43:13 r, 16.40m,0000000022Hz,0000020040c,0000000.043s,-014.9C,00002191
2022-01-20 01:53:10 r, 16.35m,0000000024Hz,0000019031c,0000000.041s,-014.9C,00002191
2022-01-20 02:03:13 r, 16.33m,0000000024Hz,0000018741c,0000000.041s,-014.9C,00002191
2022-01-20 02:13:11 r, 16.32m,0000000025Hz,0000018637c,0000000.040s,-014.6C,00002191
2022-01-20 02:23:10 r, 16.25m,0000000026Hz,0000017366c,0000000.038s,-014.6C,00002191
2022-01-20 02:33:13 r, 16.17m,0000000029Hz,0000016068c,0000000.035s,-014.6C,00002191
2022-01-20 02:43:11 r, 16.24m,0000000027Hz,0000017187c,0000000.037s,-014.6C,00002191
2022-01-20 02:53:10 r, 16.32m,0000000024Hz,0000018624c,0000000.040s,-014.9C,00002191
2022-01-20 03:03:11 r, 16.38m,0000000023Hz,0000019568c,0000000.042s,-014.9C,00002191
2022-01-20 03:13:12 r, 16.45m,0000000023Hz,0000020931c,0000000.045s,-014.9C,00002191
2022-01-20 03:23:10 r, 16.53m,0000000021Hz,0000022401c,0000000.049s,-014.9C,00002191
2022-01-20 03:33:12 r, 16.53m,0000000020Hz,0000022468c,0000000.049s,-014.9C,00002191
2022-01-20 03:43:11 r, 16.73m,0000000017Hz,0000027021c,0000000.059s,-014.9C,00002191
2022-01-20 03:53:10 r, 17.00m,0000000013Hz,0000034804c,0000000.076s,-014.9C,00002191
2022-01-20 04:03:11 r, 17.19m,0000000012Hz,0000040997c,0000000.089s,-015.2C,00002191
2022-01-20 04:13:13 r, 17.33m,0000000010Hz,0000047090c,0000000.102s,-015.2C,00002191
2022-01-20 04:23:10 r, 17.43m,0000000009Hz,0000051595c,0000000.112s,-015.2C,00002191
2022-01-20 04:33:10 r, 17.49m,0000000008Hz,0000054696c,0000000.119s,-015.2C,00002191
2022-01-20 04:43:11 r, 17.57m,0000000008Hz,0000058509c,0000000.127s,-015.2C,00002191
2022-01-20 04:53:10 r, 17.65m,0000000007Hz,0000063194c,0000000.137s,-015.2C,00002191
2022-01-20 05:03:10 r, 17.74m,0000000007Hz,0000068177c,0000000.148s,-015.2C,00002191
2022-01-20 05:13:12 r, 17.81m,0000000006Hz,0000072801c,0000000.158s,-015.2C,00002191
2022-01-20 05:23:11 r, 17.87m,0000000006Hz,0000076940c,0000000.167s,-015.2C,00002191
2022-01-20 05:33:10 r, 17.93m,0000000006Hz,0000081557c,0000000.177s,-015.2C,00002191
2022-01-20 05:43:13 r, 17.99m,0000000005Hz,0000086375c,0000000.187s,-015.2C,00002191
2022-01-20 05:53:11 r, 18.06m,0000000005Hz,0000091883c,0000000.199s,-015.5C,00002191
2022-01-20 06:03:10 r, 18.11m,0000000005Hz,0000096378c,0000000.209s,-015.5C,00002191
2022-01-20 06:13:13 r, 18.16m,0000000005Hz,0000100943c,0000000.219s,-015.5C,00002191
2022-01-20 06:23:11 r, 18.21m,0000000005Hz,0000105521c,0000000.229s,-015.5C,00002191
2022-01-20 06:33:10 r, 18.26m,0000000004Hz,0000110349c,0000000.239s,-015.5C,00002191
2022-01-20 06:43:11 r, 18.30m,0000000004Hz,0000114483c,0000000.248s,-015.5C,00002191
2022-01-20 06:53:12 r, 18.29m,0000000004Hz,0000113473c,0000000.246s,-015.8C,00002191
2022-01-20 07:03:10 r, 18.12m,0000000004Hz,0000097012c,0000000.211s,-015.8C,00002191
2022-01-20 07:13:12 r, 17.52m,0000000009Hz,0000056031c,0000000.122s,-015.8C,00002191
2022-01-20 07:23:11 r, 16.33m,0000000024Hz,0000018810c,0000000.041s,-015.8C,00002191
2022-01-20 07:33:10 r, 14.62m,0000000118Hz,0000003858c,0000000.008s,-015.8C,00002191
2022-01-20 07:43:13 r, 12.64m,0000000744Hz,0000000000c,0000000.000s,-015.8C,00002191
2022-01-20 07:53:11 r, 10.71m,0000004396Hz,0000000000c,0000000.000s,-015.8C,00002191
2022-01-20 08:03:10 r, 09.12m,0000018964Hz,0000000000c,0000000.000s,-015.8C,00002191
2022-01-20 08:13:13 r, 07.94m,0000056149Hz,0000000000c,0000000.000s,-015.8C,00002191
2022-01-20 08:23:11 r, 07.12m,0000119856Hz,0000000000c,0000000.000s,-015.5C,00002191
2022-01-20 08:33:10 r, 06.54m,0000204093Hz,0000000000c,0000000.000s,-015.2C,00002191
2022-01-20 08:43:11 r, 06.06m,0000318428Hz,0000000000c,0000000.000s,-014.9C,00002191
2022-01-20 08:53:12 r, 00.00m,0000416742Hz,0000000000c,0000000.000s,-013.6C,00002191
2022-01-20 09:03:10 r, 00.00m,0000554832Hz,0000000000c,0000000.000s,-012.0C,00002191
2022-01-20 09:13:12 r, 00.00m,0000600114Hz,0000000000c,0000000.000s,-010.7C,00002191
2022-01-20 09:23:11 r, 00.00m,0000600089Hz,0000000000c,0000000.000s,-009.7C,00002191
2022-01-20 09:33:10 r, 00.00m,0000599905Hz,0000000000c,0000000.000s,-008.8C,00002191
2022-01-20 09:43:11 r, 00.00m,0000599963Hz,0000000000c,0000000.000s,-008.1C,00002191
2022-01-20 09:53:13 r, 00.00m,0000599672Hz,0000000000c,0000000.000s,-007.1C,00002191
2022-01-20 10:03:10 r, 00.00m,0000599771Hz,0000000000c,0000000.000s,-006.8C,00002191
2022-01-20 10:13:13 r, 00.00m,0000599778Hz,0000000000c,0000000.000s,-006.2C,00002191
2022-01-20 10:23:11 r, 00.00m,0000599642Hz,0000000000c,0000000.000s,-005.5C,00002191
2022-01-20 10:33:10 r, 00.00m,0000599615Hz,0000000000c,0000000.000s,-004.6C,00002191
2022-01-20 10:43:13 r, 00.00m,0000599558Hz,0000000000c,0000000.000s,-003.9C,00002191
2022-01-20 10:53:11 r, 00.00m,0000599500Hz,0000000000c,0000000.000s,-003.3C,00002191
2022-01-20 11:03:10 r, 00.00m,0000599399Hz,0000000000c,0000000.000s,-002.6C,00002191
2022-01-20 11:13:11 r, 00.00m,0000599401Hz,0000000000c,0000000.000s,-002.6C,00002191
2022-01-20 11:23:12 r, 00.00m,0000599341Hz,0000000000c,0000000.000s,-003.0C,00002191
2022-01-20 11:33:10 r, 00.00m,0000599384Hz,0000000000c,0000000.000s,-003.0C,00002191
2022-01-20 11:43:12 r, 00.00m,0000599468Hz,0000000000c,0000000.000s,-003.0C,00002191
2022-01-20 11:53:11 r, 00.00m,0000599186Hz,0000000000c,0000000.000s,-002.3C,00002191
2022-01-20 12:03:10 r, 00.00m,0000599203Hz,0000000000c,0000000.000s,-002.0C,00002191
2022-01-20 12:13:13 r, 00.00m,0000599261Hz,0000000000c,0000000.000s,-001.7C,00002191
2022-01-20 12:23:11 r, 00.00m,0000599212Hz,0000000000c,0000000.000s,-002.0C,00002191
2022-01-20 12:33:10 r, 00.00m,0000599319Hz,0000000000c,0000000.000s,-002.0C,00002191
2022-01-20 12:43:13 r, 00.00m,0000599432Hz,0000000000c,0000000.000s,-003.6C,00002191
2022-01-20 12:53:11 r, 00.00m,0000599464Hz,0000000000c,0000000.000s,-004.9C,00002191
2022-01-20 13:03:10 r, 00.00m,0000599695Hz,0000000000c,0000000.000s,-005.5C,00002191
2022-01-20 13:13:11 r, 00.00m,0000599586Hz,0000000000c,0000000.000s,-005.9C,00002191
2022-01-20 13:23:12 r, 00.00m,0000599665Hz,0000000000c,0000000.000s,-005.9C,00002191
2022-01-20 13:33:11 r, 00.00m,0000599511Hz,0000000000c,0000000.000s,-006.2C,00002191
2022-01-20 13:43:10 r, 00.00m,0000599666Hz,0000000000c,0000000.000s,-005.9C,00002191
2022-01-20 13:53:13 r, 00.00m,0000599620Hz,0000000000c,0000000.000s,-005.9C,00002191
2022-01-20 14:03:10 r, 00.00m,0000599593Hz,0000000000c,0000000.000s,-005.9C,00002191
2022-01-20 14:13:12 r, 00.00m,0000599669Hz,0000000000c,0000000.000s,-006.2C,00002191
2022-01-20 14:23:11 r, 00.00m,0000599602Hz,0000000000c,0000000.000s,-006.2C,00002191
2022-01-20 14:33:10 r, 00.00m,0000599560Hz,0000000000c,0000000.000s,-006.2C,00002191
2022-01-20 14:43:13 r, 00.00m,0000599556Hz,0000000000c,0000000.000s,-005.9C,00002191
2022-01-20 14:53:11 r, 00.00m,0000599736Hz,0000000000c,0000000.000s,-005.9C,00002191
2022-01-20 15:03:10 r, 00.00m,0000599533Hz,0000000000c,0000000.000s,-006.2C,00002191
2022-01-20 15:13:13 r, 00.00m,0000599663Hz,0000000000c,0000000.000s,-005.9C,00002191
2022-01-20 15:23:11 r, 00.00m,0000599616Hz,0000000000c,0000000.000s,-005.9C,00002191
2022-01-20 15:33:10 r, 00.00m,0000599605Hz,0000000000c,0000000.000s,-005.9C,00002191
2022-01-20 15:43:11 r, 00.00m,0000599519Hz,0000000000c,0000000.000s,-004.9C,00002191
2022-01-20 15:53:12 r, 00.00m,0000599542Hz,0000000000c,0000000.000s,-003.9C,00002191
2022-01-20 16:03:10 r, 00.00m,0000542207Hz,0000000000c,0000000.000s,-003.6C,00002191
2022-01-20 16:13:10 r, 00.00m,0000469270Hz,0000000000c,0000000.000s,-003.6C,00002191
2022-01-20 16:23:13 r, 05.84m,0000391149Hz,0000000000c,0000000.000s,-003.6C,00002191
2022-01-20 16:33:10 r, 06.09m,0000309421Hz,0000000000c,0000000.000s,-003.6C,00002191
2022-01-20 16:43:12 r, 06.44m,0000223392Hz,0000000000c,0000000.000s,-003.9C,00002191
2022-01-20 16:53:11 r, 06.93m,0000143955Hz,0000000000c,0000000.000s,-004.9C,00002191
2022-01-20 17:03:10 r, 07.65m,0000074173Hz,0000000000c,0000000.000s,-005.5C,00002191
2022-01-20 17:13:13 r, 08.75m,0000026812Hz,0000000000c,0000000.000s,-006.2C,00002191
2022-01-20 17:23:11 r, 10.35m,0000006082Hz,0000000000c,0000000.000s,-006.5C,00002191
2022-01-20 17:33:10 r, 12.26m,0000001057Hz,0000000000c,0000000.000s,-006.8C,00002191
2022-01-20 17:43:13 r, 14.29m,0000000162Hz,0000000000c,0000000.000s,-007.1C,00002191
2022-01-20 17:53:11 r, 16.22m,0000000027Hz,0000016850c,0000000.037s,-007.1C,00002191
2022-01-20 18:03:10 r, 17.81m,0000000006Hz,0000072814c,0000000.158s,-007.1C,00002191
2022-01-20 18:13:11 r, 18.98m,0000000002Hz,0000212189c,0000000.460s,-007.1C,00002191
2022-01-20 18:23:11 r, 19.64m,0000000001Hz,0000389761c,0000000.846s,-007.5C,00002191
2022-01-20 18:33:10 r, 19.88m,0000000001Hz,0000483730c,0000001.050s,-007.5C,00002191
2022-01-20 18:43:12 r, 19.94m,0000000001Hz,0000515464c,0000001.119s,-007.5C,00002191
2022-01-20 18:53:11 r, 19.95m,0000000001Hz,0000519531c,0000001.127s,-007.5C,00002191
2022-01-20 19:03:10 r, 19.96m,0000000001Hz,0000523416c,0000001.136s,-007.5C,00002191
2022-01-20 19:13:13 r, 19.96m,0000000000Hz,0000525023c,0000001.139s,-007.5C,00002191
2022-01-20 19:23:11 r, 19.97m,0000000001Hz,0000531658c,0000001.154s,-007.1C,00002191
2022-01-20 19:33:10 r, 19.99m,0000000001Hz,0000537597c,0000001.167s,-007.1C,00002191
2022-01-20 19:43:13 r, 19.99m,0000000001Hz,0000536671c,0000001.165s,-007.1C,00002191
2022-01-20 19:53:11 r, 19.93m,0000000001Hz,0000508041c,0000001.103s,-007.1C,00002191
2022-01-20 20:03:10 r, 19.84m,0000000001Hz,0000469754c,0000001.019s,-007.1C,00002191
2022-01-20 20:13:11 r, 19.75m,0000000001Hz,0000431133c,0000000.936s,-007.1C,00002191
2022-01-20 20:23:12 r, 19.65m,0000000001Hz,0000391556c,0000000.850s,-007.1C,00002191
2022-01-20 20:33:10 r, 19.51m,0000000001Hz,0000347611c,0000000.754s,-007.1C,00002191
2022-01-20 20:43:12 r, 19.31m,0000000001Hz,0000289032c,0000000.627s,-007.1C,00002191
2022-01-20 20:53:11 r, 19.07m,0000000002Hz,0000230404c,0000000.500s,-007.1C,00002191
2022-01-20 21:03:10 r, 19.03m,0000000002Hz,0000222428c,0000000.483s,-007.5C,00002191
2022-01-20 21:13:11 r, 18.95m,0000000002Hz,0000206029c,0000000.447s,-007.5C,00002191
2022-01-20 21:23:13 r, 18.83m,0000000003Hz,0000184545c,0000000.400s,-007.5C,00002191
2022-01-20 21:33:10 r, 18.54m,0000000003Hz,0000142187c,0000000.309s,-007.5C,00002191
2022-01-20 21:43:10 r, 18.45m,0000000004Hz,0000130466c,0000000.283s,-007.5C,00002191
2022-01-20 21:53:11 r, 18.28m,0000000005Hz,0000111212c,0000000.241s,-007.5C,00002191
2022-01-20 22:03:12 r, 18.09m,0000000005Hz,0000094118c,0000000.204s,-007.5C,00002191
2022-01-20 22:13:10 r, 18.09m,0000000005Hz,0000093686c,0000000.203s,-007.1C,00002191
2022-01-20 22:23:12 r, 17.92m,0000000005Hz,0000080862c,0000000.175s,-007.1C,00002191
2022-01-20 22:33:11 r, 17.94m,0000000006Hz,0000081790c,0000000.177s,-007.1C,00002191
2022-01-20 22:43:10 r, 17.89m,0000000006Hz,0000078175c,0000000.170s,-007.1C,00002191
2022-01-20 22:53:11 r, 17.74m,0000000007Hz,0000067824c,0000000.147s,-007.1C,00002191
2022-01-20 23:03:13 r, 17.76m,0000000007Hz,0000069355c,0000000.151s,-007.1C,00002191
2022-01-20 23:13:10 r, 17.79m,0000000007Hz,0000071590c,0000000.155s,-006.8C,00002191
2022-01-20 23:23:13 r, 17.56m,0000000009Hz,0000057593c,0000000.125s,-006.8C,00002191
2022-01-20 23:33:11 r, 17.47m,0000000008Hz,0000053122c,0000000.115s,-006.8C,00002191
2022-01-20 23:43:10 r, 17.37m,0000000010Hz,0000048348c,0000000.105s,-006.8C,00002191
2022-01-20 23:53:13 r, 17.23m,0000000011Hz,0000042636c,0000000.093s,-006.8C,00002191
